Time,TemperatureF,DewpointF,PressureIn,WindDirection,WindDirectionDegrees,WindSpeedMPH,WindSpeedGustMPH,Humidity,HourlyPrecipIn,Conditions,Clouds,dailyrainin,SoftwareType,DateUTC
2013-02-26 00:00:00,30.3,20.3,30.06,East,99,1.0,1.0,66,0.00,,,0.00,Wunderground v.1.15,2013-02-26 05:00:00,
2013-02-26 00:05:00,30.0,20.0,30.06,East,99,0.0,1.0,66,0.00,,,0.00,Wunderground v.1.15,2013-02-26 05:05:00,
2013-02-26 00:10:00,30.0,20.0,30.06,ESE,116,0.0,1.0,66,0.00,,,0.00,Wunderground v.1.15,2013-02-26 05:10:00,
2013-02-26 00:15:00,29.8,20.2,30.06,East,79,1.0,2.0,67,0.00,,,0.00,Wunderground v.1.15,2013-02-26 05:15:00,
2013-02-26 00:20:00,29.8,20.2,30.06,ESE,113,1.0,2.0,67,0.00,,,0.00,Wunderground v.1.15,2013-02-26 05:20:00,
2013-02-26 00:30:00,30.1,20.1,30.04,ESE,103,2.0,2.0,66,0.00,,,0.00,Wunderground v.1.15,2013-02-26 05:30:00,
2013-02-26 00:35:00,30.1,20.1,30.04,East,89,3.0,3.0,66,0.00,,,0.00,Wunderground v.1.15,2013-02-26 05:35:00,
2013-02-26 00:40:00,30.1,20.1,30.04,SE,140,3.0,3.0,66,0.00,,,0.00,Wunderground v.1.15,2013-02-26 05:40:00,
2013-02-26 00:50:00,30.0,20.0,30.03,East,99,4.0,4.0,66,0.00,,,0.00,Wunderground v.1.15,2013-02-26 05:50:00,
2013-02-26 00:55:00,30.0,20.0,30.03,ESE,107,3.0,4.0,66,0.00,,,0.00,Wunderground v.1.15,2013-02-26 05:55:00,
2013-02-26 01:00:00,29.8,19.8,30.03,ESE,103,2.0,5.0,66,0.00,,,0.00,Wunderground v.1.15,2013-02-26 06:00:00,
2013-02-26 01:05:00,29.7,20.1,30.03,East,99,2.0,5.0,67,0.00,,,0.00,Wunderground v.1.15,2013-02-26 06:05:00,
2013-02-26 01:15:00,29.3,19.7,30.02,East,99,1.0,1.0,67,0.00,,,0.00,Wunderground v.1.15,2013-02-26 06:15:00,
2013-02-26 01:25:00,29.1,19.8,30.02,ESE,109,1.0,3.0,68,0.00,,,0.00,Wunderground v.1.15,2013-02-26 06:25:00,
2013-02-26 01:30:00,29.1,19.8,30.02,East,82,2.0,2.0,68,0.00,,,0.00,Wunderground v.1.15,2013-02-26 06:30:00,
2013-02-26 01:35:00,29.1,19.8,30.02,ESE,114,1.0,2.0,68,0.00,,,0.00,Wunderground v.1.15,2013-02-26 06:35:00,
2013-02-26 01:45:00,29.3,20.4,30.01,East,96,2.0,6.0,69,0.00,,,0.00,Wunderground v.1.15,2013-02-26 06:45:00,
2013-02-26 01:50:00,29.1,20.2,30.01,East,85,2.0,2.0,69,0.00,,,0.00,Wunderground v.1.15,2013-02-26 06:50:00,
2013-02-26 01:55:00,29.0,20.1,30.01,East,88,2.0,2.0,69,0.00,,,0.00,Wunderground v.1.15,2013-02-26 06:55:00,
2013-02-26 02:00:00,29.1,20.2,30.01,East,93,2.0,2.0,69,0.00,,,0.00,Wunderground v.1.15,2013-02-26 07:00:00,
2013-02-26 02:05:00,29.0,20.1,30.01,ESE,110,2.0,2.0,69,0.00,,,0.00,Wunderground v.1.15,2013-02-26 07:05:00,
2013-02-26 02:15:00,29.0,20.4,30.00,East,100,2.0,5.0,70,0.00,,,0.00,Wunderground v.1.15,2013-02-26 07:15:00,
2013-02-26 02:20:00,29.0,20.4,30.00,ESE,107,2.0,2.0,70,0.00,,,0.00,Wunderground v.1.15,2013-02-26 07:20:00,
2013-02-26 02:25:00,29.0,20.4,30.00,ESE,103,1.0,2.0,70,0.00,,,0.00,Wunderground v.1.15,2013-02-26 07:25:00,
2013-02-26 02:30:00,29.0,20.4,30.00,ENE,59,2.0,2.0,70,0.00,,,0.00,Wunderground v.1.15,2013-02-26 07:30:00,
2013-02-26 02:35:00,28.8,20.2,30.00,East,79,2.0,2.0,70,0.00,,,0.00,Wunderground v.1.15,2013-02-26 07:35:00,
2013-02-26 02:45:00,29.0,20.4,30.00,ESE,106,3.0,4.0,70,0.00,,,0.00,Wunderground v.1.15,2013-02-26 07:45:00,
2013-02-26 02:50:00,29.0,20.4,30.00,East,95,3.0,3.0,70,0.00,,,0.00,Wunderground v.1.15,2013-02-26 07:50:00,
2013-02-26 02:55:00,29.0,20.1,30.00,East,80,4.0,4.0,69,0.00,,,0.00,Wunderground v.1.15,2013-02-26 07:55:00,
2013-02-26 03:05:00,28.8,19.9,30.00,ESE,106,2.0,4.0,69,0.00,,,0.00,Wunderground v.1.15,2013-02-26 08:05:00,
2013-02-26 03:15:00,28.8,20.2,29.99,ESE,114,3.0,3.0,70,0.00,,,0.00,Wunderground v.1.15,2013-02-26 08:15:00,
2013-02-26 03:20:00,28.7,20.1,29.99,East,89,2.0,6.0,70,0.00,,,0.00,Wunderground v.1.15,2013-02-26 08:20:00,
2013-02-26 03:25:00,28.7,20.1,29.99,NE,34,2.0,6.0,70,0.00,,,0.00,Wunderground v.1.15,2013-02-26 08:25:00,
2013-02-26 03:30:00,28.7,20.1,29.99,East,95,2.0,2.0,70,0.00,,,0.00,Wunderground v.1.15,2013-02-26 08:30:00,
2013-02-26 03:40:00,28.5,20.0,29.99,ESE,119,1.0,2.0,70,0.00,,,0.00,Wunderground v.1.15,2013-02-26 08:40:00,
2013-02-26 03:45:00,28.5,20.0,29.98,ESE,104,2.0,3.0,70,0.00,,,0.00,Wunderground v.1.15,2013-02-26 08:45:00,
2013-02-26 03:50:00,28.7,20.1,29.98,East,100,3.0,3.0,70,0.00,,,0.00,Wunderground v.1.15,2013-02-26 08:50:00,
2013-02-26 03:55:00,28.5,20.0,29.98,ENE,76,3.0,3.0,70,0.00,,,0.00,Wunderground v.1.15,2013-02-26 08:55:00,
2013-02-26 04:05:00,28.7,20.1,29.97,NE,55,5.0,6.0,70,0.00,,,0.00,Wunderground v.1.15,2013-02-26 09:05:00,
2013-02-26 04:15:00,28.5,20.0,29.95,ENE,59,3.0,4.0,70,0.00,,,0.00,Wunderground v.1.15,2013-02-26 09:15:00,
2013-02-26 04:20:00,28.5,20.0,29.95,ESE,104,3.0,3.0,70,0.00,,,0.00,Wunderground v.1.15,2013-02-26 09:20:00,
2013-02-26 04:25:00,28.5,20.0,29.95,ENE,71,4.0,4.0,70,0.00,,,0.00,Wunderground v.1.15,2013-02-26 09:25:00,
2013-02-26 04:30:00,28.5,20.0,29.95,East,89,4.0,4.0,70,0.00,,,0.00,Wunderground v.1.15,2013-02-26 09:30:00,
2013-02-26 04:40:00,28.4,19.9,29.95,ESE,109,3.0,3.0,70,0.00,,,0.00,Wunderground v.1.15,2013-02-26 09:40:00,
2013-02-26 04:45:00,28.5,19.6,29.94,ENE,78,4.0,4.0,69,0.00,,,0.00,Wunderground v.1.15,2013-02-26 09:45:00,
2013-02-26 04:50:00,28.5,19.6,29.94,SE,124,5.0,5.0,69,0.00,,,0.00,Wunderground v.1.15,2013-02-26 09:50:00,
2013-02-26 04:55:00,28.5,19.6,29.94,East,95,5.0,8.0,69,0.00,,,0.00,Wunderground v.1.15,2013-02-26 09:55:00,
2013-02-26 05:05:00,28.5,19.6,29.95,East,96,5.0,7.0,69,0.00,,,0.00,Wunderground v.1.15,2013-02-26 10:05:00,
2013-02-26 05:15:00,28.7,19.5,29.92,ESE,110,5.0,10.0,68,0.00,,,0.00,Wunderground v.1.15,2013-02-26 10:15:00,
2013-02-26 05:20:00,28.7,19.5,29.92,ESE,120,5.0,6.0,68,0.00,,,0.00,Wunderground v.1.15,2013-02-26 10:20:00,
2013-02-26 05:25:00,28.7,19.5,29.92,ENE,62,5.0,6.0,68,0.00,,,0.00,Wunderground v.1.15,2013-02-26 10:25:00,
2013-02-26 05:35:00,28.8,19.2,29.92,ESE,110,5.0,6.0,67,0.00,,,0.00,Wunderground v.1.15,2013-02-26 10:35:00,
2013-02-26 05:40:00,28.8,19.2,29.92,ESE,106,4.0,11.0,67,0.00,,,0.00,Wunderground v.1.15,2013-02-26 10:40:00,
2013-02-26 05:45:00,28.8,19.2,29.91,SE,131,4.0,11.0,67,0.00,,,0.00,Wunderground v.1.15,2013-02-26 10:45:00,
2013-02-26 05:50:00,28.8,19.2,29.91,East,88,4.0,10.0,67,0.00,,,0.00,Wunderground v.1.15,2013-02-26 10:50:00,
2013-02-26 06:00:00,28.8,19.2,29.90,ESE,107,4.0,4.0,67,0.00,,,0.00,Wunderground v.1.15,2013-02-26 11:00:00,
2013-02-26 06:05:00,29.0,19.4,29.90,SE,124,5.0,5.0,67,0.00,,,0.00,Wunderground v.1.15,2013-02-26 11:05:00,
2013-02-26 06:15:00,29.1,19.2,29.91,ESE,107,7.0,7.0,66,0.00,,,0.00,Wunderground v.1.15,2013-02-26 11:15:00,
2013-02-26 06:20:00,29.1,19.2,29.91,East,99,7.0,12.0,66,0.00,,,0.00,Wunderground v.1.15,2013-02-26 11:20:00,
2013-02-26 06:25:00,29.1,19.2,29.91,ESE,103,7.0,12.0,66,0.00,,,0.00,Wunderground v.1.15,2013-02-26 11:25:00,
2013-02-26 06:35:00,29.0,19.1,29.90,SE,127,5.0,7.0,66,0.00,,,0.00,Wunderground v.1.15,2013-02-26 11:35:00,
2013-02-26 06:40:00,29.0,19.1,29.90,ENE,71,5.0,5.0,66,0.00,,,0.00,Wunderground v.1.15,2013-02-26 11:40:00,
2013-02-26 06:45:00,29.0,19.1,29.88,East,93,4.0,6.0,66,0.00,,,0.00,Wunderground v.1.15,2013-02-26 11:45:00,
2013-02-26 06:50:00,29.0,19.1,29.88,ENE,61,4.0,4.0,66,0.00,,,0.00,Wunderground v.1.15,2013-02-26 11:50:00,
2013-02-26 07:00:00,29.3,19.3,29.89,East,89,6.0,6.0,66,0.00,,,0.00,Wunderground v.1.15,2013-02-26 12:00:00,
2013-02-26 07:05:00,29.4,19.1,29.89,ESE,113,6.0,7.0,65,0.00,,,0.00,Wunderground v.1.15,2013-02-26 12:05:00,
2013-02-26 07:15:00,29.5,19.2,29.89,East,96,7.0,10.0,65,0.00,,,0.00,Wunderground v.1.15,2013-02-26 12:15:00,
2013-02-26 07:20:00,29.5,19.2,29.89,East,90,6.0,6.0,65,0.00,,,0.00,Wunderground v.1.15,2013-02-26 12:20:00,
2013-02-26 07:25:00,29.4,19.1,29.89,East,85,4.0,6.0,65,0.00,,,0.00,Wunderground v.1.15,2013-02-26 12:25:00,
2013-02-26 07:35:00,29.5,19.2,29.87,ESE,121,6.0,8.0,65,0.00,,,0.00,Wunderground v.1.15,2013-02-26 12:35:00,
2013-02-26 07:40:00,29.7,19.4,29.87,ESE,107,6.0,6.0,65,0.00,,,0.00,Wunderground v.1.15,2013-02-26 12:40:00,
2013-02-26 07:45:00,29.7,19.4,29.87,East,92,6.0,9.0,65,0.00,,,0.00,Wunderground v.1.15,2013-02-26 12:45:00,
2013-02-26 07:55:00,30.0,19.3,29.87,ESE,119,7.0,11.0,64,0.00,,,0.00,Wunderground v.1.15,2013-02-26 12:55:00,
2013-02-26 08:00:00,30.1,19.4,29.87,East,92,9.0,9.0,64,0.00,,,0.00,Wunderground v.1.15,2013-02-26 13:00:00,
2013-02-26 08:05:00,30.1,19.4,29.87,East,93,7.0,9.0,64,0.00,,,0.00,Wunderground v.1.15,2013-02-26 13:05:00,
2013-02-26 08:15:00,30.4,19.3,29.87,ESE,110,8.0,8.0,63,0.00,,,0.00,Wunderground v.1.15,2013-02-26 13:15:00,
2013-02-26 08:20:00,30.4,19.3,29.87,ENE,71,7.0,10.0,63,0.00,,,0.00,Wunderground v.1.15,2013-02-26 13:20:00,
2013-02-26 08:30:00,30.6,19.5,29.87,East,82,8.0,8.0,63,0.00,,,0.00,Wunderground v.1.15,2013-02-26 13:30:00,
2013-02-26 08:35:00,30.6,19.5,29.87,SE,124,8.0,8.0,63,0.00,,,0.00,Wunderground v.1.15,2013-02-26 13:35:00,
2013-02-26 08:40:00,30.6,19.5,29.87,ESE,120,8.0,16.0,63,0.00,,,0.00,Wunderground v.1.15,2013-02-26 13:40:00,
2013-02-26 08:45:00,30.7,19.2,29.86,ENE,75,8.0,16.0,62,0.00,,,0.00,Wunderground v.1.15,2013-02-26 13:45:00,
2013-02-26 08:55:00,30.7,19.6,29.86,ESE,116,8.0,13.0,63,0.00,,,0.00,Wunderground v.1.15,2013-02-26 13:55:00,
2013-02-26 09:00:00,30.7,19.2,29.87,East,100,8.0,11.0,62,0.00,,,0.00,Wunderground v.1.15,2013-02-26 14:00:00,
2013-02-26 09:05:00,30.9,19.4,29.87,SE,124,7.0,11.0,62,0.00,,,0.00,Wunderground v.1.15,2013-02-26 14:05:00,
2013-02-26 09:15:00,31.0,19.5,29.85,ESE,123,7.0,11.0,62,0.00,,,0.00,Wunderground v.1.15,2013-02-26 14:15:00,
2013-02-26 09:20:00,31.0,19.5,29.85,ESE,114,6.0,6.0,62,0.00,,,0.00,Wunderground v.1.15,2013-02-26 14:20:00,
2013-02-26 09:30:00,31.2,19.7,29.84,East,100,6.0,7.0,62,0.00,,,0.00,Wunderground v.1.15,2013-02-26 14:30:00,
2013-02-26 09:35:00,31.3,19.8,29.84,ENE,72,7.0,7.0,62,0.00,,,0.00,Wunderground v.1.15,2013-02-26 14:35:00,
2013-02-26 09:45:00,31.3,19.8,29.80,ESE,104,7.0,7.0,62,0.00,,,0.00,Wunderground v.1.15,2013-02-26 14:45:00,
2013-02-26 09:50:00,31.3,19.8,29.80,SE,137,7.0,7.0,62,0.00,,,0.00,Wunderground v.1.15,2013-02-26 14:50:00,
2013-02-26 09:55:00,31.5,19.6,29.80,East,85,7.0,7.0,61,0.00,,,0.00,Wunderground v.1.15,2013-02-26 14:55:00,
2013-02-26 10:00:00,31.5,19.6,29.79,East,95,7.0,7.0,61,0.00,,,0.00,Wunderground v.1.15,2013-02-26 15:00:00,
2013-02-26 10:05:00,31.6,19.7,29.79,ESE,112,8.0,16.0,61,0.00,,,0.00,Wunderground v.1.15,2013-02-26 15:05:00,
2013-02-26 10:15:00,31.8,19.5,29.79,ESE,102,10.0,14.0,60,0.00,,,0.00,Wunderground v.1.15,2013-02-26 15:15:00,
2013-02-26 10:20:00,31.8,19.5,29.79,SE,130,9.0,9.0,60,0.00,,,0.00,Wunderground v.1.15,2013-02-26 15:20:00,
2013-02-26 10:25:00,31.9,20.0,29.79,East,99,8.0,12.0,61,0.00,,,0.00,Wunderground v.1.15,2013-02-26 15:25:00,
2013-02-26 10:30:00,32.1,20.2,29.78,East,92,7.0,13.0,61,0.00,,,0.00,Wunderground v.1.15,2013-02-26 15:30:00,
2013-02-26 10:35:00,32.2,19.9,29.78,ENE,78,9.0,13.0,60,0.00,,,0.00,Wunderground v.1.15,2013-02-26 15:35:00,
2013-02-26 10:45:00,32.4,20.0,29.76,NE,44,8.0,8.0,60,0.00,,,0.00,Wunderground v.1.15,2013-02-26 15:45:00,
2013-02-26 10:50:00,32.4,20.0,29.76,ESE,113,9.0,9.0,60,0.00,,,0.00,Wunderground v.1.15,2013-02-26 15:50:00,
2013-02-26 10:55:00,32.4,20.0,29.76,NE,54,7.0,11.0,60,0.00,,,0.00,Wunderground v.1.15,2013-02-26 15:55:00,
2013-02-26 11:05:00,32.7,20.3,29.75,East,85,8.0,8.0,60,0.00,,,0.00,Wunderground v.1.15,2013-02-26 16:05:00,
2013-02-26 11:15:00,32.8,20.4,29.73,SE,137,6.0,7.0,60,0.00,,,0.00,Wunderground v.1.15,2013-02-26 16:15:00,
2013-02-26 11:20:00,32.9,20.5,29.73,ESE,107,6.0,6.0,60,0.00,,,0.00,Wunderground v.1.15,2013-02-26 16:20:00,
2013-02-26 11:25:00,32.9,20.5,29.73,ESE,113,7.0,12.0,60,0.00,,,0.00,Wunderground v.1.15,2013-02-26 16:25:00,
2013-02-26 11:30:00,33.1,20.7,29.73,ESE,103,8.0,8.0,60,0.00,,,0.00,Wunderground v.1.15,2013-02-26 16:30:00,
2013-02-26 11:40:00,33.4,20.6,29.73,East,95,8.0,8.0,59,0.00,,,0.00,Wunderground v.1.15,2013-02-26 16:40:00,
2013-02-26 11:45:00,33.7,20.9,29.72,East,96,8.0,8.0,59,0.00,,,0.00,Wunderground v.1.15,2013-02-26 16:45:00,
2013-02-26 11:50:00,33.8,21.0,29.72,ENE,78,6.0,6.0,59,0.00,,,0.00,Wunderground v.1.15,2013-02-26 16:50:00,
2013-02-26 11:55:00,34.1,21.3,29.72,East,99,7.0,8.0,59,0.00,,,0.00,Wunderground v.1.15,2013-02-26 16:55:00,
2013-02-26 12:05:00,34.4,21.1,29.71,ESE,116,8.0,15.0,58,0.00,,,0.00,Wunderground v.1.15,2013-02-26 17:05:00,
2013-02-26 12:15:00,34.6,21.7,29.70,ENE,68,9.0,9.0,59,0.00,,,0.00,Wunderground v.1.15,2013-02-26 17:15:00,
2013-02-26 12:20:00,34.7,21.8,29.70,East,100,7.0,10.0,59,0.00,,,0.00,Wunderground v.1.15,2013-02-26 17:20:00,
2013-02-26 12:25:00,34.7,21.4,29.70,East,92,8.0,12.0,58,0.00,,,0.00,Wunderground v.1.15,2013-02-26 17:25:00,
2013-02-26 12:30:00,34.7,21.4,29.69,East,83,10.0,10.0,58,0.00,,,0.00,Wunderground v.1.15,2013-02-26 17:30:00,
2013-02-26 12:35:00,34.4,21.5,29.69,East,89,11.0,13.0,59,0.00,,,0.00,Wunderground v.1.15,2013-02-26 17:35:00,
2013-02-26 12:45:00,34.4,21.9,29.68,ESE,120,11.0,17.0,60,0.00,,,0.00,Wunderground v.1.15,2013-02-26 17:45:00,
2013-02-26 12:50:00,34.4,21.9,29.68,ESE,110,11.0,11.0,60,0.00,,,0.00,Wunderground v.1.15,2013-02-26 17:50:00,
2013-02-26 13:00:00,34.3,22.2,29.67,SE,141,10.0,10.0,61,0.00,,,0.00,Wunderground v.1.15,2013-02-26 18:00:00,
2013-02-26 13:05:00,34.1,22.0,29.67,SE,126,10.0,13.0,61,0.00,,,0.00,Wunderground v.1.15,2013-02-26 18:05:00,
2013-02-26 13:15:00,34.1,22.4,29.65,NE,41,10.0,12.0,62,0.00,,,0.00,Wunderground v.1.15,2013-02-26 18:15:00,
2013-02-26 13:20:00,34.1,22.4,29.65,ENE,75,9.0,13.0,62,0.00,,,0.00,Wunderground v.1.15,2013-02-26 18:20:00,
2013-02-26 13:25:00,34.1,22.4,29.65,NE,45,10.0,13.0,62,0.00,,,0.00,Wunderground v.1.15,2013-02-26 18:25:00,
2013-02-26 13:35:00,34.3,22.6,29.64,ESE,102,7.0,12.0,62,0.00,,,0.00,Wunderground v.1.15,2013-02-26 18:35:00,
2013-02-26 13:40:00,34.3,22.6,29.64,ENE,65,8.0,8.0,62,0.00,,,0.00,Wunderground v.1.15,2013-02-26 18:40:00,
2013-02-26 13:45:00,34.3,22.6,29.62,ESE,107,9.0,17.0,62,0.00,,,0.00,Wunderground v.1.15,2013-02-26 18:45:00,
2013-02-26 13:50:00,34.4,22.7,29.62,ESE,116,8.0,24.0,62,0.00,,,0.00,Wunderground v.1.15,2013-02-26 18:50:00,
2013-02-26 14:00:00,34.4,22.7,29.61,SE,137,9.0,9.0,62,0.00,,,0.00,Wunderground v.1.15,2013-02-26 19:00:00,
2013-02-26 14:05:00,34.6,22.9,29.61,NE,40,9.0,9.0,62,0.00,,,0.00,Wunderground v.1.15,2013-02-26 19:05:00,
2013-02-26 14:15:00,34.6,22.9,29.59,ENE,71,9.0,13.0,62,0.00,,,0.00,Wunderground v.1.15,2013-02-26 19:15:00,
2013-02-26 14:20:00,34.6,22.9,29.59,ENE,72,9.0,13.0,62,0.00,,,0.00,Wunderground v.1.15,2013-02-26 19:20:00,
2013-02-26 14:25:00,34.4,23.1,29.59,East,99,10.0,13.0,63,0.00,,,0.00,Wunderground v.1.15,2013-02-26 19:25:00,
2013-02-26 14:35:00,34.4,23.5,29.59,ESE,113,7.0,12.0,64,0.00,,,0.00,Wunderground v.1.15,2013-02-26 19:35:00,
2013-02-26 14:40:00,34.3,23.7,29.59,SE,127,8.0,8.0,65,0.00,,,0.00,Wunderground v.1.15,2013-02-26 19:40:00,
2013-02-26 14:50:00,33.8,24.4,29.58,ESE,106,8.0,8.0,68,0.00,,,0.00,Wunderground v.1.15,2013-02-26 19:50:00,
2013-02-26 14:55:00,33.5,24.8,29.58,East,80,9.0,9.0,70,0.00,,,0.00,Wunderground v.1.15,2013-02-26 19:55:00,
2013-02-26 15:00:00,33.4,25.0,29.58,East,85,10.0,10.0,71,0.00,,,0.00,Wunderground v.1.15,2013-02-26 20:00:00,
2013-02-26 15:05:00,33.1,25.7,29.58,East,99,9.0,10.0,74,0.00,,,0.00,Wunderground v.1.15,2013-02-26 20:05:00,
2013-02-26 15:15:00,33.1,26.0,29.58,NE,54,8.0,18.0,75,0.00,,,0.01,Wunderground v.1.15,2013-02-26 20:15:00,
2013-02-26 15:25:00,33.1,26.4,29.58,ENE,71,8.0,13.0,76,0.04,,,0.02,Wunderground v.1.15,2013-02-26 20:25:00,
2013-02-26 15:30:00,33.1,26.7,29.59,East,95,9.0,12.0,77,0.04,,,0.02,Wunderground v.1.15,2013-02-26 20:30:00,
2013-02-26 15:35:00,32.9,26.5,29.59,East,97,8.0,12.0,77,0.04,,,0.02,Wunderground v.1.15,2013-02-26 20:35:00,
2013-02-26 15:40:00,32.9,26.5,29.59,ENE,72,9.0,10.0,77,0.00,,,0.02,Wunderground v.1.15,2013-02-26 20:40:00,
2013-02-26 15:50:00,32.8,27.0,29.58,NNW,347,7.0,7.0,79,0.00,,,0.03,Wunderground v.1.15,2013-02-26 20:50:00,
2013-02-26 15:55:00,32.8,27.0,29.58,ENE,61,7.0,7.0,79,0.00,,,0.03,Wunderground v.1.15,2013-02-26 20:55:00,
2013-02-26 16:05:00,32.8,27.3,29.57,ENE,64,7.0,7.0,80,0.00,,,0.03,Wunderground v.1.15,2013-02-26 21:05:00,
2013-02-26 16:15:00,32.8,27.3,29.58,ENE,66,2.0,5.0,80,0.00,,,0.03,Wunderground v.1.15,2013-02-26 21:15:00,
2013-02-26 16:25:00,32.8,27.6,29.58,ESE,110,1.0,13.0,81,0.00,,,0.03,Wunderground v.1.15,2013-02-26 21:25:00,
2013-02-26 16:30:00,32.8,27.6,29.57,East,83,4.0,6.0,81,0.00,,,0.03,Wunderground v.1.15,2013-02-26 21:30:00,
2013-02-26 16:40:00,32.7,27.8,29.57,ESE,102,6.0,6.0,82,0.00,,,0.03,Wunderground v.1.15,2013-02-26 21:40:00,
2013-02-26 16:45:00,32.7,27.8,29.57,NE,41,6.0,13.0,82,0.00,,,0.04,Wunderground v.1.15,2013-02-26 21:45:00,
2013-02-26 16:50:00,32.5,27.6,29.57,East,99,7.0,7.0,82,0.00,,,0.04,Wunderground v.1.15,2013-02-26 21:50:00,
2013-02-26 16:55:00,32.5,27.6,29.57,SE,126,8.0,8.0,82,0.00,,,0.04,Wunderground v.1.15,2013-02-26 21:55:00,
2013-02-26 17:05:00,32.4,27.8,29.57,ENE,71,6.0,7.0,83,0.00,,,0.04,Wunderground v.1.15,2013-02-26 22:05:00,
2013-02-26 17:15:00,32.1,28.1,29.58,NNE,28,6.0,18.0,85,0.00,,,0.04,Wunderground v.1.15,2013-02-26 22:15:00,
2013-02-26 17:20:00,31.9,27.9,29.58,East,99,6.0,6.0,85,0.00,,,0.04,Wunderground v.1.15,2013-02-26 22:20:00,
2013-02-26 17:25:00,31.9,28.2,29.58,North,10,6.0,8.0,86,0.00,,,0.04,Wunderground v.1.15,2013-02-26 22:25:00,
2013-02-26 17:30:00,31.8,28.4,29.57,ENE,66,6.0,6.0,87,0.00,,,0.04,Wunderground v.1.15,2013-02-26 22:30:00,
2013-02-26 17:40:00,31.8,28.7,29.57,ESE,116,7.0,7.0,88,0.00,,,0.04,Wunderground v.1.15,2013-02-26 22:40:00,
2013-02-26 17:45:00,31.8,28.7,29.57,NE,54,7.0,7.0,88,0.00,,,0.04,Wunderground v.1.15,2013-02-26 22:45:00,
2013-02-26 17:50:00,31.8,28.7,29.57,East,79,5.0,5.0,88,0.00,,,0.04,Wunderground v.1.15,2013-02-26 22:50:00,
2013-02-26 17:55:00,31.8,28.7,29.57,East,100,6.0,6.0,88,0.00,,,0.04,Wunderground v.1.15,2013-02-26 22:55:00,
2013-02-26 18:05:00,31.6,28.7,29.57,ESE,114,5.0,6.0,89,0.00,,,0.04,Wunderground v.1.15,2013-02-26 23:05:00,
2013-02-26 18:15:00,31.6,29.0,29.57,ENE,71,6.0,7.0,90,0.00,,,0.04,Wunderground v.1.15,2013-02-26 23:15:00,
2013-02-26 18:20:00,31.5,28.9,29.57,NNE,32,7.0,7.0,90,0.00,,,0.04,Wunderground v.1.15,2013-02-26 23:20:00,
2013-02-26 18:25:00,31.5,28.9,29.57,ENE,78,5.0,7.0,90,0.00,,,0.04,Wunderground v.1.15,2013-02-26 23:25:00,
2013-02-26 18:30:00,31.6,29.0,29.56,ENE,73,4.0,6.0,90,0.00,,,0.04,Wunderground v.1.15,2013-02-26 23:30:00,
2013-02-26 18:40:00,31.6,29.0,29.56,ESE,102,5.0,5.0,90,0.00,,,0.04,Wunderground v.1.15,2013-02-26 23:40:00,
2013-02-26 18:45:00,31.6,29.3,29.56,East,90,5.0,8.0,91,0.00,,,0.04,Wunderground v.1.15,2013-02-26 23:45:00,
2013-02-26 18:50:00,31.6,29.3,29.56,ENE,76,5.0,5.0,91,0.00,,,0.04,Wunderground v.1.15,2013-02-26 23:50:00,
2013-02-26 19:00:00,31.6,29.3,29.56,NNE,25,6.0,6.0,91,0.00,,,0.04,Wunderground v.1.15,2013-02-27 00:00:00,
2013-02-26 19:05:00,31.6,29.5,29.56,ENE,65,5.0,7.0,92,0.00,,,0.04,Wunderground v.1.15,2013-02-27 00:05:00,
2013-02-26 19:15:00,31.6,29.5,29.56,ENE,61,5.0,7.0,92,0.00,,,0.04,Wunderground v.1.15,2013-02-27 00:15:00,
2013-02-26 19:20:00,31.6,29.5,29.56,NE,49,4.0,7.0,92,0.00,,,0.04,Wunderground v.1.15,2013-02-27 00:20:00,
2013-02-26 19:25:00,31.6,29.5,29.56,SE,138,5.0,7.0,92,0.00,,,0.04,Wunderground v.1.15,2013-02-27 00:25:00,
2013-02-26 19:30:00,31.6,29.5,29.56,ESE,120,4.0,4.0,92,0.00,,,0.04,Wunderground v.1.15,2013-02-27 00:30:00,
2013-02-26 19:40:00,31.8,29.7,29.56,ENE,65,5.0,5.0,92,0.00,,,0.04,Wunderground v.1.15,2013-02-27 00:40:00,
2013-02-26 19:45:00,31.8,29.7,29.56,East,88,5.0,5.0,92,0.00,,,0.04,Wunderground v.1.15,2013-02-27 00:45:00,
2013-02-26 19:55:00,31.8,30.0,29.56,East,97,5.0,7.0,93,0.00,,,0.04,Wunderground v.1.15,2013-02-27 00:55:00,
2013-02-26 20:00:00,31.8,30.0,29.56,NE,55,4.0,4.0,93,0.00,,,0.04,Wunderground v.1.15,2013-02-27 01:00:00,
2013-02-26 20:05:00,31.8,30.0,29.56,NE,48,4.0,5.0,93,0.00,,,0.04,Wunderground v.1.15,2013-02-27 01:05:00,
2013-02-26 20:15:00,31.8,30.0,29.55,ENE,66,5.0,5.0,93,0.00,,,0.04,Wunderground v.1.15,2013-02-27 01:15:00,
2013-02-26 20:20:00,31.8,30.0,29.55,ESE,106,4.0,7.0,93,0.00,,,0.04,Wunderground v.1.15,2013-02-27 01:20:00,
2013-02-26 20:30:00,31.8,30.0,29.54,East,88,4.0,4.0,93,0.00,,,0.04,Wunderground v.1.15,2013-02-27 01:30:00,
2013-02-26 20:35:00,31.8,30.0,29.54,SE,127,4.0,5.0,93,0.00,,,0.04,Wunderground v.1.15,2013-02-27 01:35:00,
2013-02-26 20:40:00,31.8,30.0,29.54,East,85,5.0,5.0,93,0.00,,,0.04,Wunderground v.1.15,2013-02-27 01:40:00,
2013-02-26 20:50:00,31.8,30.0,29.53,East,92,4.0,4.0,93,0.00,,,0.04,Wunderground v.1.15,2013-02-27 01:50:00,
2013-02-26 20:55:00,31.8,30.0,29.53,East,80,4.0,4.0,93,0.00,,,0.04,Wunderground v.1.15,2013-02-27 01:55:00,
2013-02-26 21:00:00,31.9,30.1,29.53,NE,51,4.0,6.0,93,0.00,,,0.04,Wunderground v.1.15,2013-02-27 02:00:00,
2013-02-26 21:05:00,31.9,30.1,29.53,East,83,5.0,6.0,93,0.00,,,0.04,Wunderground v.1.15,2013-02-27 02:05:00,
2013-02-26 21:15:00,31.9,30.1,29.52,NE,54,3.0,4.0,93,0.00,,,0.04,Wunderground v.1.15,2013-02-27 02:15:00,
2013-02-26 21:25:00,31.9,30.1,29.52,ESE,103,4.0,5.0,93,0.00,,,0.04,Wunderground v.1.15,2013-02-27 02:25:00,
2013-02-26 21:35:00,31.9,30.1,29.52,NNE,23,3.0,5.0,93,0.00,,,0.04,Wunderground v.1.15,2013-02-27 02:35:00,
2013-02-26 21:45:00,31.9,30.1,29.51,ENE,68,3.0,3.0,93,0.00,,,0.04,Wunderground v.1.15,2013-02-27 02:45:00,
2013-02-26 21:50:00,32.1,30.3,29.51,North,6,3.0,6.0,93,0.00,,,0.04,Wunderground v.1.15,2013-02-27 02:50:00,
2013-02-26 21:55:00,32.1,30.3,29.51,ENE,76,4.0,6.0,93,0.00,,,0.04,Wunderground v.1.15,2013-02-27 02:55:00,
2013-02-26 22:00:00,32.1,30.3,29.51,East,88,3.0,4.0,93,0.00,,,0.04,Wunderground v.1.15,2013-02-27 03:00:00,
2013-02-26 22:05:00,32.1,30.3,29.51,NE,55,3.0,6.0,93,0.00,,,0.04,Wunderground v.1.15,2013-02-27 03:05:00,
2013-02-26 22:15:00,32.1,30.3,29.50,ENE,72,3.0,3.0,93,0.00,,,0.04,Wunderground v.1.15,2013-02-27 03:15:00,
2013-02-26 22:20:00,32.1,30.3,29.50,ENE,65,3.0,3.0,93,0.00,,,0.04,Wunderground v.1.15,2013-02-27 03:20:00,
2013-02-26 22:25:00,32.1,30.3,29.50,NE,42,3.0,8.0,93,0.00,,,0.04,Wunderground v.1.15,2013-02-27 03:25:00,
2013-02-26 22:30:00,32.1,30.3,29.50,NNE,25,4.0,8.0,93,0.00,,,0.04,Wunderground v.1.15,2013-02-27 03:30:00,
2013-02-26 22:40:00,32.1,30.3,29.50,ESE,109,3.0,5.0,93,0.00,,,0.04,Wunderground v.1.15,2013-02-27 03:40:00,
2013-02-26 22:45:00,32.2,30.4,29.50,NE,40,4.0,5.0,93,0.00,,,0.04,Wunderground v.1.15,2013-02-27 03:45:00,
2013-02-26 22:50:00,32.2,30.4,29.50,East,99,3.0,3.0,93,0.00,,,0.04,Wunderground v.1.15,2013-02-27 03:50:00,
2013-02-26 23:00:00,32.2,30.4,29.49,East,86,4.0,4.0,93,0.00,,,0.04,Wunderground v.1.15,2013-02-27 04:00:00,
2013-02-26 23:05:00,32.2,30.4,29.49,East,83,4.0,4.0,93,0.00,,,0.04,Wunderground v.1.15,2013-02-27 04:05:00,
2013-02-26 23:15:00,32.2,30.7,29.48,NE,55,4.0,5.0,94,0.00,,,0.04,Wunderground v.1.15,2013-02-27 04:15:00,
2013-02-26 23:20:00,32.2,30.7,29.48,ENE,72,4.0,6.0,94,0.00,,,0.04,Wunderground v.1.15,2013-02-27 04:20:00,
2013-02-26 23:30:00,32.2,30.7,29.48,East,93,3.0,3.0,94,0.00,,,0.04,Wunderground v.1.15,2013-02-27 04:30:00,
2013-02-26 23:35:00,32.2,30.7,29.48,NE,51,3.0,6.0,94,0.00,,,0.04,Wunderground v.1.15,2013-02-27 04:35:00,
2013-02-26 23:40:00,32.2,30.7,29.48,East,80,3.0,3.0,94,0.00,,,0.04,Wunderground v.1.15,2013-02-27 04:40:00,
2013-02-26 23:45:00,32.2,30.7,29.48,ESE,116,3.0,3.0,94,0.00,,,0.04,Wunderground v.1.15,2013-02-27 04:45:00,
2013-02-26 23:55:00,32.2,30.7,29.48,ESE,104,3.0,3.0,94,0.00,,,0.04,Wunderground v.1.15,2013-02-27 04:55:00,